Location: Broek
(53.2737°N, 5.9967°E)
Time: 22:53:50
(UTC+00:00)

Cosmos 1707 Rocket - Pass Details

Date: 10 October 2024
Orbit: 599 x 627 km, 82.5° (Epoch: 10 November)

Event Time Altitude Azimuth Distance (km) Brightness Sun altitude
Rises 17:21:49 0° 346° (NNW) 2,886 7.1 -5.5°
Reaches altitude 10° 17:24:05 10° 342° (NNW) 1,972 6.3 -5.8°
Maximum altitude 17:28:21 58° 264° (W) 710 4.3 -6.5°
Drops below altitude 10° 17:32:34 10° 186° (S) 1,943 6.2 -7.1°
Sets 17:34:47 0° 182° (S) 2,839 7.0 -7.4°
